Time,TemperatureF,DewpointF,PressureIn,WindDirection,WindDirectionDegrees,WindSpeedMPH,WindSpeedGustMPH,Humidity,HourlyPrecipIn,Conditions,Clouds,dailyrainin,SoftwareType,DateUTC
2013-01-14 08:23:00,76.0,-99.9,30.15,ESE,118,8.0,11.0,-999,-99.99,,,-99.99,,2013-01-14 13:23:00,
2013-01-14 08:30:00,76.0,-99.9,30.15,SE,131,6.0,13.0,-999,-99.99,,,-99.99,,2013-01-14 13:30:00,
2013-01-14 08:34:00,76.0,-99.9,30.15,ESE,115,6.0,11.0,-999,-99.99,,,-99.99,,2013-01-14 13:34:00,
2013-01-14 08:43:00,76.0,-99.9,30.15,ESE,115,6.0,12.0,-999,-99.99,,,-99.99,,2013-01-14 13:43:00,
2013-01-14 08:53:00,76.0,-99.9,30.15,SE,131,6.0,13.0,-999,-99.99,,,-99.99,,2013-01-14 13:53:00,
2013-01-14 09:03:00,76.0,-99.9,30.15,SE,131,6.0,13.0,-999,-99.99,,,-99.99,,2013-01-14 14:03:00,
2013-01-14 09:13:00,76.0,-99.9,30.15,SE,131,6.0,13.0,-999,-99.99,,,-99.99,,2013-01-14 14:13:00,
2013-01-14 09:23:00,76.0,-99.9,30.15,SE,131,6.0,13.0,-999,-99.99,,,-99.99,,2013-01-14 14:23:00,
2013-01-14 10:12:00,78.0,-99.9,30.16,ESE,106,9.0,14.0,-999,-99.99,,,-99.99,,2013-01-14 15:12:00,
2013-01-14 10:24:00,78.0,-99.9,30.16,ESE,115,10.0,15.0,-999,-99.99,,,-99.99,,2013-01-14 15:24:00,
2013-01-14 10:34:00,78.0,-99.9,30.16,ESE,109,5.0,16.0,-999,-99.99,,,-99.99,,2013-01-14 15:34:00,
2013-01-14 10:43:00,78.0,-99.9,30.16,ESE,105,8.0,16.0,-999,-99.99,,,-99.99,,2013-01-14 15:43:00,
2013-01-14 10:53:00,78.0,-99.9,30.16,ESE,119,9.0,19.0,-999,-99.99,,,-99.99,,2013-01-14 15:53:00,
2013-01-14 11:03:00,78.0,-99.9,30.16,ESE,112,10.0,15.0,-999,-99.99,,,-99.99,,2013-01-14 16:03:00,
2013-01-14 11:13:00,78.0,-99.9,30.16,ESE,119,10.0,16.0,-999,-99.99,,,-99.99,,2013-01-14 16:13:00,
2013-01-14 11:23:00,78.0,-99.9,30.16,ESE,123,12.0,16.0,-999,-99.99,,,-99.99,,2013-01-14 16:23:00,
2013-01-14 11:33:00,78.0,-99.9,30.16,ESE,113,13.0,18.0,-999,-99.99,,,-99.99,,2013-01-14 16:33:00,
2013-01-14 11:43:00,79.0,-99.9,30.15,ESE,108,8.0,14.0,-999,-99.99,,,-99.99,,2013-01-14 16:43:00,
2013-01-14 11:53:00,79.0,-99.9,30.15,ESE,115,8.0,16.0,-999,-99.99,,,-99.99,,2013-01-14 16:53:00,
2013-01-14 12:03:00,78.0,-99.9,30.15,ESE,103,10.0,18.0,-999,-99.99,,,-99.99,,2013-01-14 17:03:00,
2013-01-14 12:12:00,78.0,-99.9,30.15,ESE,122,10.0,16.0,-999,-99.99,,,-99.99,,2013-01-14 17:12:00,
2013-01-14 12:23:00,79.0,-99.9,30.14,ESE,107,8.0,15.0,-999,-99.99,,,-99.99,,2013-01-14 17:23:00,
2013-01-14 12:34:00,78.0,-99.9,30.14,ESE,121,10.0,15.0,-999,-99.99,,,-99.99,,2013-01-14 17:34:00,
2013-01-14 12:44:00,79.0,-99.9,30.14,ESE,108,8.0,14.0,-999,-99.99,,,-99.99,,2013-01-14 17:44:00,
2013-01-14 12:54:00,78.0,-99.9,30.14,ESE,111,6.0,14.0,-999,-99.99,,,-99.99,,2013-01-14 17:54:00,
2013-01-14 13:03:00,78.0,-99.9,30.14,East,94,8.0,13.0,-999,-99.99,,,-99.99,,2013-01-14 18:03:00,
2013-01-14 13:13:00,78.0,-99.9,30.14,ESE,116,6.0,14.0,-999,-99.99,,,-99.99,,2013-01-14 18:13:00,
2013-01-14 13:23:00,78.0,-99.9,30.14,ESE,113,10.0,13.0,-999,-99.99,,,-99.99,,2013-01-14 18:23:00,
2013-01-14 13:33:00,77.0,-99.9,30.13,ESE,102,10.0,16.0,-999,-99.99,,,-99.99,,2013-01-14 18:33:00,
2013-01-14 13:43:00,77.0,-99.9,30.13,ESE,102,10.0,16.0,-999,-99.99,,,-99.99,,2013-01-14 18:43:00,
2013-01-14 13:53:00,78.0,-99.9,30.13,East,92,10.0,13.0,-999,-99.99,,,-99.99,,2013-01-14 18:53:00,
2013-01-14 14:03:00,78.0,-99.9,30.12,East,100,9.0,16.0,-999,-99.99,,,-99.99,,2013-01-14 19:03:00,
2013-01-14 14:13:00,78.0,-99.9,30.12,East,100,9.0,15.0,-999,-99.99,,,-99.99,,2013-01-14 19:13:00,
2013-01-14 14:22:00,78.0,-99.9,30.12,East,87,11.0,16.0,-999,-99.99,,,-99.99,,2013-01-14 19:22:00,
2013-01-14 14:30:00,78.0,-99.9,30.12,East,87,8.0,15.0,-999,-99.99,,,-99.99,,2013-01-14 19:30:00,
2013-01-14 14:33:00,78.0,-99.9,30.12,East,101,9.0,15.0,-999,-99.99,,,-99.99,,2013-01-14 19:33:00,
2013-01-14 14:43:00,77.0,-99.9,30.12,East,100,9.0,14.0,-999,-99.99,,,-99.99,,2013-01-14 19:43:00,
2013-01-14 14:53:00,77.0,-99.9,30.12,East,100,9.0,14.0,-999,-99.99,,,-99.99,,2013-01-14 19:53:00,
2013-01-14 15:04:00,78.0,-99.9,30.12,East,87,8.0,15.0,-999,-99.99,,,-99.99,,2013-01-14 20:04:00,
2013-01-14 15:13:00,78.0,-99.9,30.12,East,87,8.0,15.0,-999,-99.99,,,-99.99,,2013-01-14 20:13:00,
2013-01-14 15:23:00,78.0,-99.9,30.12,East,87,8.0,15.0,-999,-99.99,,,-99.99,,2013-01-14 20:23:00,
2013-01-14 15:53:00,78.0,-99.9,30.12,East,95,10.0,15.0,-999,-99.99,,,-99.99,,2013-01-14 20:53:00,
2013-01-14 16:03:00,77.0,-99.9,30.12,ESE,111,11.0,16.0,-999,-99.99,,,-99.99,,2013-01-14 21:03:00,
2013-01-14 16:13:00,77.0,-99.9,30.12,East,94,12.0,17.0,-999,-99.99,,,-99.99,,2013-01-14 21:13:00,
2013-01-14 16:23:00,77.0,-99.9,30.12,East,94,12.0,17.0,-999,-99.99,,,-99.99,,2013-01-14 21:23:00,
2013-01-14 16:33:00,77.0,-99.9,30.12,East,94,12.0,17.0,-999,-99.99,,,-99.99,,2013-01-14 21:33:00,
2013-01-14 16:43:00,77.0,-99.9,30.13,East,97,6.0,15.0,-999,-99.99,,,-99.99,,2013-01-14 21:43:00,
2013-01-14 16:53:00,76.0,-99.9,30.14,East,99,8.0,15.0,-999,-99.99,,,-99.99,,2013-01-14 21:53:00,
2013-01-14 17:03:00,76.0,-99.9,30.14,East,88,7.0,12.0,-999,-99.99,,,-99.99,,2013-01-14 22:03:00,
2013-01-14 17:13:00,76.0,-99.9,30.14,East,96,11.0,14.0,-999,-99.99,,,-99.99,,2013-01-14 22:13:00,
2013-01-14 17:23:00,76.0,-99.9,30.14,East,88,11.0,13.0,-999,-99.99,,,-99.99,,2013-01-14 22:23:00,
2013-01-14 17:33:00,76.0,-99.9,30.14,East,94,11.0,15.0,-999,-99.99,,,-99.99,,2013-01-14 22:33:00,
2013-01-14 17:43:00,76.0,-99.9,30.15,East,95,6.0,10.0,-999,-99.99,,,-99.99,,2013-01-14 22:43:00,
2013-01-14 17:53:00,75.0,-99.9,30.15,East,93,7.0,11.0,-999,-99.99,,,-99.99,,2013-01-14 22:53:00,
2013-01-14 18:03:00,75.0,-99.9,30.15,East,87,7.0,14.0,-999,-99.99,,,-99.99,,2013-01-14 23:03:00,
2013-01-14 18:12:00,75.0,-99.9,30.16,East,89,8.0,13.0,-999,-99.99,,,-99.99,,2013-01-14 23:12:00,
2013-01-14 18:23:00,75.0,-99.9,30.16,East,88,8.0,15.0,-999,-99.99,,,-99.99,,2013-01-14 23:23:00,
2013-01-14 18:33:00,75.0,-99.9,30.16,East,94,7.0,13.0,-999,-99.99,,,-99.99,,2013-01-14 23:33:00,
2013-01-14 18:43:00,75.0,-99.9,30.16,East,91,7.0,11.0,-999,-99.99,,,-99.99,,2013-01-14 23:43:00,
2013-01-14 18:53:00,75.0,-99.9,30.16,East,94,7.0,14.0,-999,-99.99,,,-99.99,,2013-01-14 23:53:00,
2013-01-14 19:03:00,75.0,-99.9,30.16,ESE,109,7.0,11.0,-999,-99.99,,,-99.99,,2013-01-15 00:03:00,
2013-01-14 19:12:00,75.0,-99.9,30.16,ESE,105,8.0,11.0,-999,-99.99,,,-99.99,,2013-01-15 00:12:00,
2013-01-14 19:23:00,75.0,-99.9,30.16,East,94,7.0,11.0,-999,-99.99,,,-99.99,,2013-01-15 00:23:00,
2013-01-14 19:33:00,74.0,-99.9,30.16,ESE,104,5.0,11.0,-999,-99.99,,,-99.99,,2013-01-15 00:33:00,
2013-01-14 19:43:00,75.0,-99.9,30.16,ESE,103,8.0,13.0,-999,-99.99,,,-99.99,,2013-01-15 00:43:00,
2013-01-14 19:53:00,75.0,-99.9,30.16,ESE,114,7.0,11.0,-999,-99.99,,,-99.99,,2013-01-15 00:53:00,
2013-01-14 20:02:00,75.0,-99.9,30.16,ESE,114,7.0,11.0,-999,-99.99,,,-99.99,,2013-01-15 01:02:00,
2013-01-14 20:12:00,75.0,-99.9,30.16,ESE,102,6.0,10.0,-999,-99.99,,,-99.99,,2013-01-15 01:12:00,
2013-01-14 20:23:00,75.0,-99.9,30.16,ESE,115,8.0,14.0,-999,-99.99,,,-99.99,,2013-01-15 01:23:00,
2013-01-14 20:33:00,75.0,-99.9,30.16,ESE,106,8.0,14.0,-999,-99.99,,,-99.99,,2013-01-15 01:33:00,
2013-01-14 20:43:00,75.0,-99.9,30.16,ESE,107,8.0,13.0,-999,-99.99,,,-99.99,,2013-01-15 01:43:00,
2013-01-14 20:53:00,75.0,-99.9,30.16,ESE,107,7.0,13.0,-999,-99.99,,,-99.99,,2013-01-15 01:53:00,
2013-01-14 21:03:00,75.0,-99.9,30.16,ESE,104,8.0,11.0,-999,-99.99,,,-99.99,,2013-01-15 02:03:00,
2013-01-14 21:12:00,75.0,-99.9,30.16,East,100,7.0,12.0,-999,-99.99,,,-99.99,,2013-01-15 02:12:00,
2013-01-14 21:23:00,75.0,-99.9,30.16,East,101,6.0,11.0,-999,-99.99,,,-99.99,,2013-01-15 02:23:00,
2013-01-14 21:33:00,75.0,-99.9,30.16,ESE,108,5.0,11.0,-999,-99.99,,,-99.99,,2013-01-15 02:33:00,
2013-01-14 21:43:00,75.0,-99.9,30.16,ESE,107,7.0,10.0,-999,-99.99,,,-99.99,,2013-01-15 02:43:00,
2013-01-14 21:53:00,75.0,-99.9,30.16,East,98,8.0,12.0,-999,-99.99,,,-99.99,,2013-01-15 02:53:00,
2013-01-14 22:03:00,75.0,-99.9,30.16,ESE,105,6.0,12.0,-999,-99.99,,,-99.99,,2013-01-15 03:03:00,
2013-01-14 22:12:00,75.0,-99.9,30.16,East,100,6.0,11.0,-999,-99.99,,,-99.99,,2013-01-15 03:12:00,
2013-01-14 22:22:00,75.0,-99.9,30.16,East,98,7.0,13.0,-999,-99.99,,,-99.99,,2013-01-15 03:22:00,
2013-01-14 22:33:00,74.0,-99.9,30.16,East,93,6.0,10.0,-999,-99.99,,,-99.99,,2013-01-15 03:33:00,
2013-01-14 22:43:00,74.0,-99.9,30.16,East,98,5.0,11.0,-999,-99.99,,,-99.99,,2013-01-15 03:43:00,
2013-01-14 22:53:00,75.0,-99.9,30.16,East,101,8.0,12.0,-999,-99.99,,,-99.99,,2013-01-15 03:53:00,
2013-01-14 23:03:00,75.0,-99.9,30.16,East,89,8.0,12.0,-999,-99.99,,,-99.99,,2013-01-15 04:03:00,
2013-01-14 23:12:00,74.0,-99.9,30.16,East,95,7.0,12.0,-999,-99.99,,,-99.99,,2013-01-15 04:12:00,
2013-01-14 23:22:00,74.0,-99.9,30.15,East,98,5.0,12.0,-999,-99.99,,,-99.99,,2013-01-15 04:22:00,
2013-01-14 23:33:00,74.0,-99.9,30.15,ESE,102,8.0,13.0,-999,-99.99,,,-99.99,,2013-01-15 04:33:00,
2013-01-14 23:43:00,74.0,-99.9,30.15,ESE,106,7.0,12.0,-999,-99.99,,,-99.99,,2013-01-15 04:43:00,
2013-01-14 23:53:00,74.0,-99.9,30.15,ESE,112,8.0,13.0,-999,-99.99,,,-99.99,,2013-01-15 04:53:00,